MST,Max TemperatureF,Mean TemperatureF,Min TemperatureF,Max Dew PointF,MeanDew PointF,Min DewpointF,Max Humidity, Mean Humidity, Min Humidity, Max Sea Level PressureIn, Mean Sea Level PressureIn, Min Sea Level PressureIn, Max VisibilityMiles, Mean VisibilityMiles, Min VisibilityMiles, Max Wind SpeedMPH, Mean Wind SpeedMPH, Max Gust SpeedMPH,PrecipitationIn, CloudCover, Events, WindDirDegrees
2014-2-1,21,16,10,16,13,9,93,83,74,30.13,29.96,29.75,10,8,2,17,8,21,0.00,7,Snow,62
2014-2-2,21,11,0,13,9,-2,93,84,71,30.10,30.03,29.94,10,5,0,13,4,,0.00,2,Fog,268
2014-2-3,23,18,13,16,13,11,93,82,70,29.95,29.89,29.84,10,7,0,13,6,,0.00,3,Fog,280
2014-2-4,15,4,-9,14,4,-14,95,83,75,30.33,30.07,29.94,10,5,2,23,13,24,0.00,7,Snow,36
2014-2-5,1,-8,-18,-8,-15,-24,83,76,61,30.42,30.36,30.28,10,10,7,12,6,,0.00,1,,44
2014-2-6,0,-8,-16,-9,-14,-21,83,76,65,30.27,30.11,29.93,10,10,10,8,4,,0.00,1,,252
2014-2-7,12,-2,-15,4,-7,-20,83,74,59,29.92,29.84,29.76,10,10,7,14,5,,0.00,1,,256
2014-2-8,32,18,5,22,14,0,92,75,59,30.06,29.86,29.80,10,9,5,26,6,30,0.00,2,,347
2014-2-9,18,14,10,16,10,7,95,89,80,30.11,30.05,30.00,10,6,1,15,10,,0.00,8,Snow,81
2014-2-10,23,16,7,16,11,5,94,86,75,30.13,30.07,30.02,10,5,0,9,6,,0.00,6,Fog-Snow,295
2014-2-11,31,24,18,27,20,16,89,83,75,30.11,30.01,29.90,10,4,0,31,6,43,0.00,4,Fog,269
2014-2-12,38,28,18,30,22,14,91,77,59,30.13,29.96,29.80,10,10,10,24,11,30,0.00,2,,257
2014-2-13,52,36,20,35,27,15,94,70,48,29.90,29.82,29.74,10,10,10,18,7,24,0.00,0,,263
2014-2-14,43,34,26,31,26,16,96,74,34,30.08,29.96,29.82,10,10,10,22,9,28,0.00,2,,30
2014-2-15,43,36,28,34,28,25,92,78,52,30.09,29.97,29.76,10,10,10,26,9,37,0.00,3,,315
2014-2-16,57,42,27,38,29,19,96,71,34,30.00,29.81,29.65,10,10,7,39,9,56,0.00,0,,265
2014-2-17,58,42,27,24,16,6,74,41,13,30.07,29.97,29.79,10,10,10,28,13,36,0.00,0,,257
2014-2-18,53,41,28,28,23,16,90,55,24,30.01,29.89,29.75,10,10,10,41,9,53,0.00,0,,342
2014-2-19,57,42,28,32,25,21,91,57,27,29.95,29.67,29.45,10,10,2,33,7,45,0.00,2,Snow,260
2014-2-20,37,28,20,21,10,0,71,45,21,29.94,29.87,29.73,10,10,10,39,19,50,0.00,1,,298
2014-2-21,50,34,19,25,13,4,80,45,15,29.89,29.84,29.79,10,10,10,32,13,44,0.00,0,,285
2014-2-22,48,35,22,28,24,17,96,80,30,30.02,29.89,29.78,10,8,0,22,6,29,0.00,4,Fog-Snow,74
2014-2-23,37,30,22,30,25,21,98,88,68,30.06,30.02,29.98,10,8,1,21,8,24,0.00,6,Snow,89
2014-2-24,58,36,14,31,20,8,98,80,24,30.29,30.03,29.88,10,7,0,40,9,48,0.00,5,Fog,352
2014-2-25,20,12,2,17,9,-2,93,84,70,30.35,30.19,29.99,10,8,0,24,7,30,0.00,5,Fog-Snow,28
2014-2-26,36,17,-2,23,11,-7,93,76,54,30.27,30.04,29.92,10,9,0,13,6,,0.00,1,Fog,278
2014-2-27,53,36,19,32,25,16,95,72,37,29.91,29.68,29.56,10,9,5,13,6,10,0.00,3,,27
2014-2-28,46,33,19,33,26,18,95,83,58,29.91,29.75,29.54,10,9,2,23,12,28,0.00,6,,50